FENGYUN 1C DEB, 31054

Orbit data source: Space-Track

FENGYUN 1C DEB, 31054 is space debris in SSO originally from a launch on Mon, 10 May 1999 UTC launched from the Taiyaun Space Center, China (TSC). Fengyun 1C debris stems from the Chinese weather satellite Fengyun-1C, which was intentionally destroyed by a Chinese anti-satellite missile in 2007. This event dramatically increased the amount of space debris, with thousands of trackable fragments posing hazards to satellites and human spaceflight. The Fengyun 1C debris cloud has become a focal point in discussions about space sustainability and the need for international regulations to prevent the creation of new debris.

Loading next visibility...
Identifier
31054, 1999-025BEY
Orbit
SSO
Country
Flag of CNCN / PRC
Related business
Manufacturer
Unknown
Mission
Spacecraft
Bus & Motor
Unknown
Mass
Unknown
Launch date (UTC)
1999-05-10 (27 years ago)
Launch vehicle
Unknown
Launch site
Taiyaun Space Center, China (TSC)
Object type
Payload
Rocket body
Debris
Shape & HBR
Unknown shape, 0.1 m
Radar Cross Section
Medium (>0.1 m² and <1 m²)

Expand to show TLE details & history
Last TLE update: 1 day ago

TLE from 1 day ago
0 FENGYUN 1C DEB
1 31054U 99025BEY 26206.28627971  .00000174  00000-0  11754-3 0  9999
2 31054  98.6829 217.4075 0009322 197.1973 176.3661 14.12295885999334
Epoch: 2026-07-25T06:52Z
TLE epoch observation values (Epoch: 2026-07-25T06:52:14.566Z)
Latitude
13.37766°
Longitude
169.27565°
Altitude
860.412 km
Speed
7.42 km/s
True Right ascension
14h 21m 20s
True Declination
13° 18' 06"
Sunlit
Object was in daylight at epoch
Visualization orbit readout
Latitude
Unknown
Longitude
Unknown
Altitude
Unknown
Speed
Unknown
Apparent Right ascension
Unknown
Apparent Declination
Unknown
Sunlit
N/A
Visualization observer readout
Local Sidereal Time
00:10:06
Azimuth
Unknown
Elevation
Unknown
Doppler factor
Unknown
Orbital elements
Apogee altitude
855.43 km
Perigee altitude
841.957 km
Semi-major axis
7,226.83 km
Eccentricity
0.00093
Inclination
98.6829°
RAAN
217.4075°
Arg. of periapsis
197.1973°
True anomaly
176.37286°
Mean anomaly
176.3661°
Eccentric anomaly
176.36948°
Mean motion
3.53282 °/min
Orbital period
101.9 mins
BSTAR
0.00011754
Loading maneuver chart data...
Computing Atmospheric mass density...

Documentation

Showing up to 5 results
|